Погода в Кузьмовке

Погода в Кузьмовке : погода сейчас, прогноз погоды и архив. Всё, что Вы хотите узнать о погоде в Кузьмовке!

Поиск расширенной информации на нашем сайте:

Другие новости

Новости СМИ2

Главная страница сайта

Новости сайта

02.10.2013

Напоминаем, что на нашем новом сайте вы можете получить высокодетализированные прогнозы погоды по пунктам России, СНГ и мира (включающие важные для авиации метеовеличины, такие как направление и скорость ветра, видимость, явления погоды, количество и форма облачности, нижняя и верхняя граница облачности), а также ознакомиться с разнообразными материалами по авиационной метеорологии и подборкой полезных ссылок на эту тему.

Сайт Метеоцентр.Азия посвящён разработке технологий оптимизации авиаметеорологического обслуживания, включая проектирование и перспективное создание нескольких автоматизированных авиаметеорологических систем:
- система выпуска высокодетальных прогностических карт явлений погоды для нижнего воздушного пространства по России и ближнему зарубежью;
- система верификации прогнозов TAF (выпускаемых синоптиками официальных АМСГ РФ и ближнего зарубежья) и AUTOTAF (выпускаемых сайтом Метеоцентр.Азия) - выявление ошибок, онлайн-сопоставление с фактической погодой METAR, автоматическое внесение коррективов в прогнозы при резком отклонении фактической погоды от прогноза, подсчёт оправдываемости прогнозов по элементам и в целом;
- система обработки, анализа и отображения авиаметеорологической информации для применения провайдерами метеорологической информации.


Погода в Кузьмовке - сегодня

Время (UTC), дата Ветер
(°,м/с) 
Видим.   Явления Облачность Т
(°С)
Тd
(°С)
f(%) Тe
(°С)
Pmin
(гПа)
dP
(гПа)
Po
(мм)
O2
(г/м3)
Тmin Tmax R s Состояние
почвы
09 18.01.17 тихо ()   10 км  слаб. снег  10/10 2000 м 
[As trans]
-23.4 -25.3 84 -23  1026.3  0.4  763  338           
12 18.01.17 тихо ()   10 км  слаб. снег  10/10 2000 м 
[As trans]
-26.1 -27.9 85 -26  1026.9  0.5  764  342    -21.4     
15 18.01.17 тихо ()   10 км  слаб. снег  10/10 2000 м 
[As trans]
-27 -28.8 85 -27  1026.7  -0.2  763  343           
18 18.01.17 тихо ()   10 км  слаб. снег  10/10 2000 м 
[As trans]
-27.5 -29.3 85 -28  1027.3  0.6  764  344           
21 18.01.17 тихо ()   20000 м  {снег}  ясно 
-31.9 -34.4 79 -32  1028.3  0.8  764  351           
03 19.01.17 тихо ()   20000 м    ясно 
-37.7 -39.9 80 -38  1031.1  1.3  766  360  -37.7         
06 19.01.17 тихо ()   20000 м    3/0 верхняя 
[Ci fib]
-35 -37.4 79 -35  1032.1  1.1  767  357           
09 19.01.17 тихо ()   20000 м    6/0 верхняя 
[Ci fib]
-34.7 -37.1 79 -35  1033.7  1.6  768  357           
15 19.01.17 тихо ()   20000 м    ясно 
-38.9 -41.8 74 -39  1036.3  0.8  770  364           
21 19.01.17 тихо ()   10 км  слаб. снег  10/10 2000 м 
[As trans]
-34.4 -36.8 79 -34  1036.7  0.2  771  357           
03 20.01.17 тихо ()   10 км  слаб. снег  10/10 2000 м 
[Ns]
-29.9 -32.4 79 -30  1034.6  -0.9  769  350           
06 20.01.17 180 (Ю) 10 км  слаб. снег  10/10 2000 м 
[Ns]
-26.7 -29.2 79 -27  1033.5  -0.9  769  345           
09 20.01.17 тихо ()   10 км  слаб. снег  10/10 2000 м 
[Ac As]
-25.4 -27.8 80 -25  1031.7  -1.8  767  343           
12 20.01.17 тихо ()   20000 м  {снег}  10/10 2000 м 
[As trans]
-28 -30.5 79 -28  1030.3  -1.5  766  346    -24.5  0.3     
18 20.01.17 180 (Ю) 10 км  слаб. снег  10/10 2000 м 
[Ns]
-20.6 -22.5 85 -21  1025.6  -2.8  763  334           
03 21.01.17 180 (Ю) 20000 м    10/10 2000 м 
[Ns]
-16.4 -18.3 85 -17  1020.1  -1.1  759  327           
06 21.01.17 180 (Ю) 10 км  слаб. снег  10/10 2000 м 
[Ns]
-15.2 -17.9 80 -15  1018.7  -1.3  758  325           
09 21.01.17 180 (Ю) 20000 м  {снег}  10/10 2000 м 
[As trans]
-15.2 -17.9 80 -15  1017.5  -1.2  757  324           
18 21.01.17 180 (Ю) 10 км  слаб. снег  10/10 2000 м 
[Ns]
-14.1 -16.1 85 -16  1011.9  -2.3  753  321           
21 21.01.17 180 (Ю) 10 км  слаб. снег  10/10 2000 м 
[Ns]
-13.5 -15.5 85 -13  1010.3  -1.6  752  320           
03 22.01.17 180 (Ю) 4000 м  слаб. снег  10/10 2000 м 
[Ns]
-11.4 -12.7 90 -13  1009.3  -0.3  751  317           
06 22.01.17 140 (ЮВ) 10 км  слаб. снег  10/0 верхняя 
[Cs]
-10.6 -11.9 90 -10  1009.8  0.5  751  316           
09 22.01.17 180 (Ю) 10 км  слаб. снег  10/8 2000 м средняя, верхняя 
[Ac und|Cs]
-10.5 -11.8 90 -10  1010.5  0.7  752  316           
12 22.01.17 180 (Ю) 20000 м  {снег}  10/10 2000 м 
[Ac und]
-12 -13.3 90 -12  1011.2  0.7  752  318    -10.5  0.8     
18 22.01.17 180 (Ю) 10 км  слаб. снег  10/10 2000 м 
[Ns]
-9.4 -11 88 -9  1011.7  0.3  753  315           
Время (UTC), дата Ветер
(°,м/с) 
Видим.   Явления Облачность Т
(°С)
Тd
(°С)
f(%) Тe
(°С)
Pmin
(гПа)
dP
(гПа)
Po
(мм)
O2
(г/м3)
Тmin Tmax R s Состояние
почвы

Для получения пояснительной информации подведите курсор к названию столбца.

ПОГОДА в Кузьмовке - архив

Всё, что Вы хотите узнать о погоде в Кузьмовке - удобно и подробно!

Выберите нужную дату (начиная с 1 января 2015* года) и нажмите кнопку "Найти".
Будут отображены архивные сводки погоды по пункту Кузьмовка, начиная с указанной даты.


Отображать данные в формате CSV (для использования в таблицах Excel)


Внимание! Наш архив погоды предназначен исключительно для личного некоммерческого использования в познавательных целях. Если Вам необходимы официальные справки о состоянии погоды (для производственных, юридических, коммерческих и т.п. целей), обращайтесь в органы Росгидромета.

*Примечание: данная дата относится к архиву по метеостанциям СССР (Россия, СНГ, Балтия).
Архив по метеостанциям Зарубежной Европы и Азии (кроме Китая) хранится 10 дней, по другим регионам земного шара (Китай, Африка, Америка, Австралия, Океания) - 1 день.

Кузьмовка - район местоположения метеостанции


Название, широта, долгота, высота метеостанции:
Кузьмовка 62.3°ш. 92.1°д. 60 м над ур. моря [Российская Федерация]

Дополнительная информация

В oтличие oт бoльшинства пoгoдных сайтoв мы публикуем пoдрoбную метеoинфoрмацию в детальнoм прoфессиoнальнoм фoрмате.

Характеристики температуры и влажнoсти вoздуха измеряются на высoте 2 м в тени вдали oт зданий и деревьев.
Скoрoсть ветра измеряется на высoте 10 м (на урoвне рoста челoвека скoрoсть ветра ниже в 1.5-2 раза). Если метеoстанция нахoдится в гoрoде или в лесу, тo скoрoсть ветра занижена на 2-4 м/с пo сравнению с oткрытым местoм. Скoрoсть ветра над акватoриями крупных рек и oзёр, а также на вершинах хoлмoв на 2-5 м/с выше, чем в oбычных услoвиях.
Атмoсфернoе давление в разных тoчках местнoсти мoжет значительнo oтличаться oт давления на метеoстанции, в зависимoсти oт услoвий рельефа (при пoдъёме на 10 м давление пoнижается примернo на 1 мм рт.ст.).